Skip Page Navigation
NASA JPL Caltech
NASA Logo - Jet Propulsion Laboratory + View the NASA Portal
+ Near-Earth Object (NEO) Program
Search JPL
JPL Home Earth Solar System Stars & Galaxies Technology
JPL Solar System Dynamics
BODIES ORBITS EPHEMERIDES TOOLS PHYSICAL DATA DISCOVERY FAQ SITE MAP
JPL Small-Body Database Browser
Search: [ help ]  
14344 (1985 CP2)
Classification: Main-belt Asteroid          SPK-ID: 2014344
Ephemeris | Orbit Diagram | Orbital Elements | Physical Parameters | Discovery Circumstances ]

[ show orbit diagram ]
Orbital Elements at Epoch 2457000.5 (2014-Dec-09.0) TDB
Reference: JPL 15 (heliocentric ecliptic J2000)
 Element Value Uncertainty (1-sigma)   Units 
e .134384969529156 4.4605e-08  
a 2.389773002254858 1.2431e-08 AU
q 2.068623430165239 1.0687e-07 AU
i 1.790211717450376 5.0408e-06 deg
node 295.6197721375014 0.00017569 deg
peri 144.6824471399487 0.00017723 deg
M 81.06702024267565 2.3247e-05 deg
tp 2456696.638895624777
(2014-Feb-08.13889562)
8.6665e-05 JED
period 1349.377308400129
3.69
1.0529e-05
2.883e-08
d
yr
n .2667897242371959 2.0816e-09 deg/d
Q 2.710922574344476 1.4101e-08 AU
  Orbit Determination Parameters
   # obs. used (total)      847  
   data-arc span      11057 days (30.27 yr)  
   first obs. used      1985-02-15  
   last obs. used      2015-05-26  
   planetary ephem.      DE431  
   SB-pert. ephem.      SB431-BIG16  
   condition code      0  
   fit RMS      .5971  
   data source      ORB  
   producer      Otto Matic  
   solution date      2015-Jun-04 16:20:25  

Additional Information
 Earth MOID = 1.08431 AU 
 T_jup = 3.520 
[ show covariance matrix ]

Ephemeris | Orbit Diagram | Orbital Elements | Physical Parameters | Discovery Circumstances ]

Physical Parameter Table
Parameter Symbol Value Units Sigma Reference Notes
absolute magnitude H 15.2 mag n/a MPO324441  

14344 (1985 CP2)          Discovered 1985-Feb-15 by Debehogne, H. at La Silla
Reference: 20000418/Numbers.arcLast Updated: 2004-04-19

Alternate Designations
 1985 CP2 = 1994 PF35 
Ephemeris | Orbit Diagram | Orbital Elements | Physical Parameters | Discovery Circumstances ]
ABOUT SSD CREDITS/AWARDS PRIVACY/COPYRIGHT GLOSSARY LINKS
FirstGov 2015-Jul-31 03:05 UT
(server date/time)  
NASA Home Page
Site Manager:   Ryan S. Park
Webmaster  Alan B. Chamberlin